Powrót do katalogu

ATLAS 5 CENTAUR DEB

AktywnyHEO
NORAD 57598·DEBRIS·🇺🇸 United States

Wystrzelony Oct 17, 2018 z Cape Canaveral Space Force Station

Loading…

Następne Przeloty (najbliższe 24 godziny)

TLE

Starzejące sięSource: Space-Track

Epoka: Aug 30, 2026, 21:25 UTC

1 57598U 18079HZ  26242.89257796 -.00000134  00000-0  00000-0 0  9997
2 57598  13.3655  29.0500 4623766 328.5183  10.5209  1.82933921 46745

Śledź ATLAS 5 CENTAUR DEB w czasie rzeczywistym z AllMySat

Download on the App Store